This is the latest recevied weather packets stored in our database for station/object KC3DGM. If no packets are shown the sender has not sent any weather packets the latest 10 day(s).
| Time | Temp. | Humidity | Pressure | Rain* | Wind** | Luminosity | Snow |
|---|---|---|---|---|---|---|---|
| 1778164581 | 11.67° C | 59% | 983.7 hPa | 0 mm | - | 773 W/m² | - |
| 1778164278 | 12.22° C | 60% | 983.7 hPa | 0 mm | - | 794 W/m² | - |
| 1778163973 | 12.22° C | 58% | 983.7 hPa | 0 mm | - | 786 W/m² | - |
| 1778163671 | 12.22° C | 59% | 983.9 hPa | 0 mm | - | 756 W/m² | - |
| 1778163367 | 12.22° C | 60% | 984.1 hPa | 0 mm | - | 679 W/m² | - |
| 1778163064 | 11.11° C | 62% | 984.3 hPa | 0 mm | - | 626 W/m² | - |
| 1778162760 | 11.11° C | 61% | 983.9 hPa | 0 mm | - | 580 W/m² | - |
| 1778162457 | 11.11° C | 64% | 984.1 hPa | 0 mm | - | 452 W/m² | - |
| 1778162154 | 11.11° C | 64% | 984.1 hPa | 0 mm | - | 475 W/m² | - |
| 1778161852 | 11.11° C | 64% | 984.2 hPa | 0 mm | - | 436 W/m² | - |
| 1778161548 | 11.11° C | 66% | 983.9 hPa | 0 mm | - | 484 W/m² | - |
| 1778161244 | 10.56° C | 68% | 984.3 hPa | 0 mm | - | 330 W/m² | - |
| 1778160940 | 10.56° C | 69% | 984.1 hPa | 0 mm | - | 199 W/m² | - |
| 1778160638 | 10° C | 69% | 984.3 hPa | 0 mm | - | 295 W/m² | - |
| 1778160335 | 10° C | 70% | 984.3 hPa | 0 mm | - | 137 W/m² | - |
| 1778160031 | 9.44° C | 72% | 984.4 hPa | 0 mm | - | 139 W/m² | - |
| 1778159728 | 9.44° C | 72% | 984.3 hPa | 0 mm | - | 151 W/m² | - |
| 1778159425 | 8.89° C | 76% | 984.3 hPa | 0 mm | - | 134 W/m² | - |
| 1778159122 | 8.33° C | 76% | 984.4 hPa | 0 mm | - | 147 W/m² | - |
| 1778158820 | 7.78° C | 77% | 984.2 hPa | 0 mm | - | 97 W/m² | - |
| 1778158519 | 7.78° C | 79% | 984.4 hPa | 0 mm | - | 91 W/m² | - |
| 1778158216 | 6.67° C | 83% | 984.2 hPa | 0 mm | - | 96 W/m² | - |
| 1778157912 | 6.11° C | 85% | 984.2 hPa | 0 mm | - | 76 W/m² | - |
| 1778157610 | 5.56° C | 89% | 984.2 hPa | 0 mm | - | 71 W/m² | - |
| 1778157308 | 5° C | 89% | 984.5 hPa | 0 mm | - | 54 W/m² | - |
* Rain latest hour (hover to see other rain measurements)
** Current wind speed in m/s (hover to see current wind gust speed)